| time (UTC) | temp F | wind direction | speed knots | gust knots | rain 1hr in | rain 24hr in | rain mn in | humidity % | barometer mb |
| 20260902222753 | 103 | 45 | 0.9 | 5.2 | 0.00 | 0.00 | 0.00 | 27 | 1009.3 |
| 20260902222524 | 103 | 248 | 0.9 | 5.2 | 0.00 | 0.00 | 0.00 | 25 | 1009.3 |
| 20260902222024 | 103 | 270 | 0.9 | 7.0 | 0.00 | 0.00 | 0.00 | 27 | 1009.3 |
| 20260902221253 | 103 | 203 | 1.7 | 7.0 | 0.00 | 0.00 | 0.00 | 27 | 1009.3 |
| 20260902220753 | 104 | 225 | 0.9 | 4.3 | 0.00 | 0.00 | 0.00 | 27 | 1009.3 |
| 20260902220522 | 104 | 203 | 0.9 | 4.3 | 0.00 | 0.00 | 0.00 | 27 | 1009.3 |
| 20260902220022 | 103 | 180 | 0.9 | 6.1 | 0.00 | 0.00 | 0.00 | 27 | 1009.7 |
| 20260902215248 | 103 | 180 | 0.9 | 7.0 | 0.00 | 0.00 | 0.00 | 27 | 1009.7 |
| 20260902215005 | 103 | 180 | 1.7 | 7.0 | 0.00 | 0.00 | 0.00 | 27 | 1009.7 |
| 20260902214234 | 103 | 158 | 1.7 | 6.1 | 0.00 | 0.00 | 0.00 | 27 | 1009.7 |
| 20260902213733 | 103 | 180 | 0.9 | 6.1 | 0.00 | 0.00 | 0.00 | 27 | 1009.7 |
| 20260902213234 | 103 | 158 | 0.9 | 6.1 | 0.00 | 0.00 | 0.00 | 27 | 1009.7 |
| 20260902212733 | 102 | 270 | 0.9 | 7.0 | 0.00 | 0.00 | 0.00 | 27 | 1010.0 |
| 20260902212233 | 102 | 180 | 1.7 | 7.8 | 0.00 | 0.00 | 0.00 | 27 | 1010.0 |
| 20260902211732 | 102 | 225 | 0.9 | 7.8 | 0.00 | 0.00 | 0.00 | 30 | 1010.0 |
| 20260902211231 | 101 | 203 | 0.9 | 7.0 | 0.00 | 0.00 | 0.00 | 30 | 1010.0 |
| 20260902211003 | 101 | 180 | 1.7 | 9.6 | 0.00 | 0.00 | 0.00 | 30 | 1010.0 |
| 20260902210232 | 101 | 180 | 1.7 | 9.6 | 0.00 | 0.00 | 0.00 | 29 | 1010.5 |
| 20260902205732 | 100 | 180 | 1.7 | 7.0 | 0.00 | 0.00 | 0.00 | 30 | 1010.5 |
| 20260902205233 | 100 | 113 | 0.0 | 2.6 | 0.00 | 0.00 | 0.00 | 30 | 1010.8 |
| 20260902204733 | 100 | 90 | 0.0 | 6.1 | 0.00 | 0.00 | 0.00 | 30 | 1010.8 |
| 20260902204233 | 100 | 338 | 1.7 | 7.0 | 0.00 | 0.00 | 0.00 | 30 | 1011.1 |
| 20260902203733 | 100 | 180 | 0.9 | 7.0 | 0.00 | 0.00 | 0.00 | 30 | 1011.1 |
| 20260902203231 | 100 | 225 | 1.7 | 6.1 | 0.00 | 0.00 | 0.00 | 30 | 1011.5 |
| 20260902202731 | 99 | 158 | 0.9 | 8.7 | 0.00 | 0.00 | 0.00 | 32 | 1011.1 |
| 20260902202231 | 99 | 203 | 1.7 | 9.6 | 0.00 | 0.00 | 0.00 | 31 | 1011.1 |
| 20260902201731 | 99 | 158 | 1.7 | 9.6 | 0.00 | 0.00 | 0.00 | 31 | 1011.5 |
| 20260902201503 | 99 | 203 | 0.9 | 4.3 | 0.00 | 0.00 | 0.00 | 31 | 1011.5 |
| 20260902200732 | 99 | 158 | 0.9 | 6.1 | 0.00 | 0.00 | 0.00 | 31 | 1011.5 |
| 20260902200503 | 99 | 293 | 0.9 | 7.8 | 0.00 | 0.00 | 0.00 | 30 | 1011.8 |
| 20260902195733 | 99 | 180 | 1.7 | 7.8 | 0.00 | 0.00 | 0.00 | 30 | 1011.8 |
| 20260902195233 | 99 | 270 | 1.7 | 7.0 | 0.00 | 0.00 | 0.00 | 31 | 1012.1 |
| 20260902194736 | 99 | 180 | 0.9 | 6.1 | 0.00 | 0.00 | 0.00 | 32 | 1011.8 |
| 20260902194231 | 98 | 180 | 1.7 | 7.8 | 0.00 | 0.00 | 0.00 | 30 | 1011.8 |
| 20260902193730 | 98 | 180 | 0.9 | 7.8 | 0.00 | 0.00 | 0.00 | 31 | 1012.1 |
| 20260902193230 | 98 | 180 | 1.7 | 7.0 | 0.00 | 0.00 | 0.00 | 31 | 1012.1 |
| 20260902192732 | 98 | 248 | 1.7 | 7.0 | 0.00 | 0.00 | 0.00 | 30 | 1012.1 |
| 20260902192232 | 98 | 180 | 0.9 | 6.1 | 0.00 | 0.00 | 0.00 | 31 | 1012.1 |
| 20260902191731 | 98 | 180 | 0.9 | 6.1 | 0.00 | 0.00 | 0.00 | 32 | 1012.1 |
| 20260902191218 | 98 | 203 | 1.7 | 7.0 | 0.00 | 0.00 | 0.00 | 31 | 1012.1 |
| 20260902190944 | 98 | 225 | 1.7 | 7.0 | 0.00 | 0.00 | 0.00 | 31 | 1012.5 |
| 20260902190931 | 98 | 180 | 1.7 | 7.0 | 0.00 | 0.00 | 0.00 | 31 | 1012.5 |
| 20260902185713 | 98 | 248 | 1.7 | 7.8 | 0.00 | 0.00 | 0.00 | 31 | 1012.5 |
| 20260902185212 | 97 | 225 | 1.7 | 7.8 | 0.00 | 0.00 | 0.00 | 32 | 1012.5 |
| 20260902184711 | 97 | 180 | 0.9 | 7.8 | 0.00 | 0.00 | 0.00 | 34 | 1012.5 |
| 20260902184213 | 97 | 203 | 1.7 | 7.8 | 0.00 | 0.00 | 0.00 | 31 | 1012.8 |
| 20260902183713 | 97 | 248 | 1.7 | 8.7 | 0.00 | 0.00 | 0.00 | 32 | 1012.8 |
| 20260902183212 | 97 | 203 | 1.7 | 8.7 | 0.00 | 0.00 | 0.00 | 32 | 1012.8 |
| 20260902182944 | 97 | 203 | 1.7 | 5.2 | 0.00 | 0.00 | 0.00 | 34 | 1012.8 |
| 20260902182212 | 97 | 23 | 0.9 | 7.8 | 0.00 | 0.00 | 0.00 | 35 | 1013.3 |
| 20260902181712 | 96 | 270 | 1.7 | 7.8 | 0.00 | 0.00 | 0.00 | 35 | 1013.3 |
| 20260902181212 | 96 | 135 | 0.9 | 5.2 | 0.00 | 0.00 | 0.00 | 37 | 1013.3 |
| 20260902180711 | 96 | 180 | 0.9 | 5.2 | 0.00 | 0.00 | 0.00 | 37 | 1013.6 |
| 20260902180211 | 96 | 158 | 1.7 | 8.7 | 0.00 | 0.00 | 0.00 | 37 | 1013.3 |
| 20260902175712 | 96 | 180 | 1.7 | 8.7 | 0.00 | 0.00 | 0.00 | 37 | 1013.3 |
| 20260902175442 | 96 | 180 | 1.7 | 8.7 | 0.00 | 0.00 | 0.00 | 37 | 1013.3 |
| 20260902174712 | 96 | 203 | 0.9 | 8.7 | 0.00 | 0.00 | 0.00 | 37 | 1013.3 |
| 20260902174211 | 96 | 203 | 1.7 | 6.1 | 0.00 | 0.00 | 0.00 | 37 | 1013.3 |
| 20260902173712 | 96 | 203 | 0.9 | 7.8 | 0.00 | 0.00 | 0.00 | 40 | 1013.3 |
| 20260902173210 | 96 | 158 | 1.7 | 7.8 | 0.00 | 0.00 | 0.00 | 40 | 1013.3 |
| 20260902172710 | 96 | 203 | 0.9 | 6.1 | 0.00 | 0.00 | 0.00 | 37 | 1013.3 |
| 20260902172211 | 95 | 203 | 0.9 | 6.1 | 0.00 | 0.00 | 0.00 | 39 | 1013.3 |
| 20260902171710 | 95 | 113 | 1.7 | 5.2 | 0.00 | 0.00 | 0.00 | 39 | 1013.3 |
| 20260902171211 | 95 | 180 | 0.9 | 5.2 | 0.00 | 0.00 | 0.00 | 40 | 1013.6 |
| 20260902170944 | 95 | 180 | 0.9 | 5.2 | 0.00 | 0.00 | 0.00 | 40 | 1013.3 |
| 20260902170211 | 95 | 203 | 0.9 | 5.2 | 0.00 | 0.00 | 0.00 | 37 | 1013.6 |
| 20260902165941 | 95 | 180 | 0.9 | 6.1 | 0.00 | 0.00 | 0.00 | 40 | 1013.6 |
| 20260902165211 | 96 | 158 | 0.9 | 6.1 | 0.00 | 0.00 | 0.00 | 40 | 1013.9 |
| 20260902164710 | 96 | 180 | 0.9 | 6.1 | 0.00 | 0.00 | 0.00 | 41 | 1013.3 |
| 20260902164210 | 95 | 180 | 0.9 | 4.3 | 0.00 | 0.00 | 0.00 | 43 | 1013.6 |
| 20260902163711 | 95 | 203 | 0.0 | 4.3 | 0.00 | 0.00 | 0.00 | 45 | 1013.6 |
| 20260902163210 | 94 | 180 | 0.9 | 4.3 | 0.00 | 0.00 | 0.00 | 45 | 1013.6 |
| 20260902162710 | 94 | 158 | 0.9 | 5.2 | 0.00 | 0.00 | 0.00 | 45 | 1013.6 |
| 20260902162211 | 93 | 180 | 0.9 | 5.2 | 0.00 | 0.00 | 0.00 | 46 | 1013.6 |
| 20260902161710 | 92 | 203 | 0.9 | 5.2 | 0.00 | 0.00 | 0.00 | 49 | 1013.6 |
| 20260902161442 | 92 | 203 | 0.9 | 6.1 | 0.00 | 0.00 | 0.00 | 50 | 1013.6 |
| 20260902160710 | 91 | 158 | 0.9 | 6.1 | 0.00 | 0.00 | 0.00 | 50 | 1013.6 |
| 20260902160210 | 91 | 135 | 0.9 | 5.2 | 0.00 | 0.00 | 0.00 | 50 | 1013.6 |
| 20260902155710 | 90 | 158 | 0.9 | 5.2 | 0.00 | 0.00 | 0.00 | 53 | 1013.3 |
| 20260902155210 | 90 | 203 | 0.9 | 4.3 | 0.00 | 0.00 | 0.00 | 53 | 1013.3 |
| 20260902154942 | 89 | 203 | 0.9 | 3.5 | 0.00 | 0.00 | 0.00 | 54 | 1013.6 |
| 20260902154210 | 89 | 158 | 0.0 | 5.2 | 0.00 | 0.00 | 0.00 | 54 | 1013.6 |
| 20260902153942 | 89 | 203 | 0.9 | 5.2 | 0.00 | 0.00 | 0.00 | 55 | 1013.3 |
| 20260902153210 | 89 | 68 | 0.9 | 3.5 | 0.00 | 0.00 | 0.00 | 55 | 1013.3 |
| 20260902152941 | 88 | 225 | 0.9 | 5.2 | 0.00 | 0.00 | 0.00 | 55 | 1013.3 |
| 20260902152210 | 88 | 180 | 0.9 | 5.2 | 0.00 | 0.00 | 0.00 | 55 | 1013.3 |
| 20260902151709 | 88 | 225 | 0.9 | 5.2 | 0.00 | 0.00 | 0.00 | 55 | 1013.3 |
| 20260902151440 | 87 | 158 | 0.9 | 4.3 | 0.00 | 0.00 | 0.00 | 56 | 1012.8 |
| 20260902150709 | 87 | 180 | 0.0 | 3.5 | 0.00 | 0.00 | 0.00 | 56 | 1013.3 |
| 20260902150440 | 86 | 225 | 0.0 | 3.5 | 0.00 | 0.00 | 0.00 | 59 | 1013.3 |
| 20260902145709 | 86 | 270 | 0.0 | 1.7 | 0.00 | 0.00 | 0.00 | 59 | 1013.3 |
| 20260902145210 | 85 | 180 | 0.0 | 1.7 | 0.00 | 0.00 | 0.00 | 60 | 1013.3 |
| 20260902144711 | 85 | 180 | 0.0 | 1.7 | 0.00 | 0.00 | 0.00 | 60 | 1013.3 |
| 20260902144210 | 85 | 225 | 0.0 | 0.9 | 0.00 | 0.00 | 0.00 | 61 | 1013.3 |
| 20260902143710 | 84 | 158 | 0.0 | 0.9 | 0.00 | 0.00 | 0.00 | 61 | 1012.8 |
| 20260902143201 | 84 | 180 | 0.0 | 2.6 | 0.00 | 0.00 | 0.00 | 61 | 1013.3 |
| 20260902142651 | 84 | 135 | 0.0 | 3.5 | 0.00 | 0.00 | 0.00 | 61 | 1012.8 |
| 20260902142426 | 83 | 180 | 0.0 | 3.5 | 0.00 | 0.00 | 0.00 | 61 | 1012.8 |
| 20260902142151 | 84 | 158 | 0.0 | 3.5 | 0.00 | 0.00 | 0.00 | 61 | 1012.8 |
| 20260902141151 | 83 | 45 | 0.0 | 1.7 | 0.00 | 0.00 | 0.00 | 61 | 1012.8 |
| 20260902140651 | 83 | 203 | 0.0 | 0.9 | 0.00 | 0.00 | 0.00 | 63 | 1012.5 |
| 20260902140151 | 83 | 248 | 0.0 | 1.7 | 0.00 | 0.00 | 0.00 | 63 | 1012.5 |
| 20260902135928 | 83 | 338 | 0.0 | 2.6 | 0.00 | 0.00 | 0.00 | 63 | 1012.5 |
| 20260902135652 | 83 | 135 | 0.0 | 1.7 | 0.00 | 0.00 | 0.00 | 61 | 1012.5 |
| 20260902135151 | 83 | 158 | 0.0 | 0.9 | 0.00 | 0.00 | 0.00 | 61 | 1012.5 |
| 20260902134150 | 83 | 203 | 0.0 | 2.6 | 0.00 | 0.00 | 0.00 | 61 | 1012.5 |
| 20260902133650 | 83 | 270 | 0.0 | 0.0 | 0.00 | 0.00 | 0.00 | 61 | 1012.1 |
| 20260902133149 | 83 | 293 | 0.0 | 0.0 | 0.00 | 0.00 | 0.00 | 61 | 1012.5 |
| 20260902132650 | 83 | 158 | 0.0 | 0.0 | 0.00 | 0.00 | 0.00 | 61 | 1012.5 |
| 20260902132151 | 83 | 293 | 0.0 | 0.0 | 0.00 | 0.00 | 0.00 | 61 | 1012.1 |
| 20260902131651 | 83 | 0 | 0.0 | 0.0 | 0.00 | 0.00 | 0.00 | 61 | 1012.1 |
| 20260902131151 | 83 | 0 | 0.0 | 0.9 | 0.00 | 0.00 | 0.00 | 61 | 1011.8 |
| 20260902130651 | 83 | 203 | 0.0 | 0.9 | 0.00 | 0.00 | 0.00 | 61 | 1012.1 |
| 20260902130156 | 83 | 338 | 0.0 | 0.9 | 0.00 | 0.00 | 0.00 | 61 | 1011.8 |
| 20260902125650 | 83 | 315 | 0.0 | 0.9 | 0.00 | 0.00 | 0.00 | 61 | 1012.1 |
| 20260902125150 | 83 | 225 | 0.0 | 0.0 | 0.00 | 0.00 | 0.00 | 61 | 1011.8 |
| 20260902124921 | 83 | 225 | 0.0 | 0.0 | 0.00 | 0.00 | 0.00 | 61 | 1011.8 |
| 20260902124150 | 83 | 315 | 0.0 | 0.9 | 0.00 | 0.00 | 0.00 | 61 | 1011.8 |
| 20260902123651 | 83 | 225 | 0.0 | 0.9 | 0.00 | 0.00 | 0.00 | 61 | 1011.8 |
| 20260902123152 | 83 | 270 | 0.0 | 0.9 | 0.00 | 0.00 | 0.00 | 61 | 1011.8 |
| 20260902122652 | 83 | 180 | 0.0 | 0.9 | 0.00 | 0.00 | 0.00 | 61 | 1011.5 |
| 20260902122151 | 83 | 45 | 0.0 | 0.9 | 0.00 | 0.00 | 0.00 | 61 | 1011.5 |
| 20260902121651 | 83 | 315 | 0.0 | 0.9 | 0.00 | 0.00 | 0.00 | 61 | 1011.8 |
| 20260902121154 | 84 | 270 | 0.0 | 0.9 | 0.00 | 0.00 | 0.00 | 60 | 1011.5 |
| 20260902121150 | 84 | 225 | 0.0 | 0.9 | 0.00 | 0.00 | 0.00 | 60 | 1011.5 |
| 20260902120907 | 84 | 248 | 0.0 | 0.0 | 0.00 | 0.00 | 0.00 | 60 | 1011.5 |
| 20260902115922 | 84 | 315 | 0.0 | 0.0 | 0.00 | 0.00 | 0.00 | 60 | 1011.8 |
| 20260902115151 | 84 | 225 | 0.0 | 0.9 | 0.00 | 0.00 | 0.00 | 60 | 1011.5 |
| 20260902114651 | 84 | 0 | 0.0 | 1.7 | 0.00 | 0.00 | 0.00 | 60 | 1011.5 |
| 20260902114151 | 84 | 90 | 0.0 | 1.7 | 0.00 | 0.00 | 0.00 | 61 | 1011.8 |
| 20260902113651 | 84 | 23 | 0.0 | 0.9 | 0.00 | 0.00 | 0.00 | 60 | 1011.5 |
| 20260902113152 | 84 | 270 | 0.0 | 0.9 | 0.00 | 0.00 | 0.00 | 60 | 1011.5 |
| 20260902112650 | 84 | 0 | 0.0 | 0.0 | 0.00 | 0.00 | 0.00 | 59 | 1011.5 |
| 20260902112151 | 84 | 225 | 0.0 | 0.0 | 0.00 | 0.00 | 0.00 | 59 | 1011.5 |
| 20260902111650 | 84 | 315 | 0.0 | 0.0 | 0.00 | 0.00 | 0.00 | 59 | 1011.5 |
| 20260902111150 | 84 | 248 | 0.0 | 0.0 | 0.00 | 0.00 | 0.00 | 59 | 1011.5 |
| 20260902110650 | 84 | 248 | 0.0 | 0.0 | 0.00 | 0.00 | 0.00 | 59 | 1011.5 |
| 20260902110151 | 84 | 338 | 0.0 | 0.9 | 0.00 | 0.00 | 0.00 | 59 | 1011.5 |
| 20260902105651 | 84 | 293 | 0.0 | 0.9 | 0.00 | 0.00 | 0.00 | 58 | 1011.5 |
| 20260902105151 | 85 | 270 | 0.0 | 0.9 | 0.00 | 0.00 | 0.00 | 59 | 1011.1 |
| 20260902104922 | 85 | 248 | 0.0 | 0.9 | 0.00 | 0.00 | 0.00 | 59 | 1011.1 |
| 20260902104151 | 85 | 0 | 0.0 | 0.9 | 0.00 | 0.00 | 0.00 | 58 | 1011.5 |
| 20260902103650 | 85 | 23 | 0.0 | 0.9 | 0.00 | 0.00 | 0.00 | 59 | 1011.5 |
| 20260902103150 | 85 | 135 | 0.0 | 0.0 | 0.00 | 0.00 | 0.00 | 60 | 1011.5 |
| 20260902102650 | 85 | 158 | 0.0 | 0.0 | 0.00 | 0.00 | 0.00 | 59 | 1011.5 |
| 20260902102150 | 85 | 158 | 0.0 | 0.0 | 0.00 | 0.00 | 0.00 | 58 | 1011.5 |
| 20260902101923 | 85 | 158 | 0.0 | 0.0 | 0.00 | 0.00 | 0.00 | 56 | 1011.1 |
| 20260902101152 | 85 | 158 | 0.0 | 0.0 | 0.00 | 0.00 | 0.00 | 55 | 1011.5 |
| 20260902100651 | 85 | 113 | 0.0 | 0.0 | 0.00 | 0.00 | 0.00 | 55 | 1011.5 |
| 20260902100151 | 85 | 113 | 0.0 | 0.0 | 0.00 | 0.00 | 0.00 | 54 | 1011.5 |
| 20260902095651 | 85 | 113 | 0.0 | 0.0 | 0.00 | 0.00 | 0.00 | 55 | 1011.5 |
| 20260902095154 | 86 | 113 | 0.0 | 0.0 | 0.00 | 0.00 | 0.00 | 54 | 1011.5 |
| 20260902095150 | 85 | 113 | 0.0 | 0.0 | 0.00 | 0.00 | 0.00 | 55 | 1011.1 |
| 20260902094150 | 86 | 113 | 0.0 | 0.0 | 0.00 | 0.00 | 0.00 | 53 | 1011.5 |
| 20260902093650 | 86 | 113 | 0.0 | 0.0 | 0.00 | 0.00 | 0.00 | 54 | 1011.1 |
| 20260902093151 | 86 | 113 | 0.0 | 0.0 | 0.00 | 0.00 | 0.00 | 55 | 1011.1 |
| 20260902092151 | 86 | 113 | 0.0 | 0.0 | 0.00 | 0.00 | 0.00 | 54 | 1011.5 |
| 20260902091921 | 87 | 135 | 0.0 | 0.0 | 0.00 | 0.00 | 0.00 | 55 | 1011.1 |
| 20260902091151 | 87 | 135 | 0.0 | 0.0 | 0.00 | 0.00 | 0.00 | 53 | 1011.5 |
| 20260902090921 | 87 | 135 | 0.0 | 0.0 | 0.00 | 0.00 | 0.00 | 54 | 1011.1 |
| 20260902090149 | 87 | 135 | 0.0 | 0.0 | 0.00 | 0.00 | 0.00 | 51 | 1011.1 |
| 20260902085650 | 87 | 135 | 0.0 | 0.0 | 0.00 | 0.00 | 0.00 | 50 | 1011.1 |
| 20260902085150 | 88 | 135 | 0.0 | 0.0 | 0.00 | 0.00 | 0.00 | 50 | 1011.5 |
| 20260902084650 | 88 | 135 | 0.0 | 1.7 | 0.00 | 0.00 | 0.00 | 50 | 1011.5 |
| 20260902084421 | 88 | 135 | 0.0 | 1.7 | 0.00 | 0.00 | 0.00 | 49 | 1011.1 |
| 20260902083651 | 88 | 158 | 0.0 | 1.7 | 0.00 | 0.00 | 0.00 | 48 | 1011.1 |
| 20260902083421 | 88 | 158 | 0.0 | 3.5 | 0.00 | 0.00 | 0.00 | 48 | 1011.1 |
| 20260902082651 | 88 | 180 | 0.9 | 3.5 | 0.00 | 0.00 | 0.00 | 46 | 1011.5 |
| 20260902082156 | 88 | 180 | 0.9 | 3.5 | 0.00 | 0.00 | 0.00 | 46 | 1011.1 |
| 20260902082151 | 88 | 180 | 0.0 | 3.5 | 0.00 | 0.00 | 0.00 | 46 | 1011.5 |
| 20260902081150 | 88 | 158 | 0.9 | 2.6 | 0.00 | 0.00 | 0.00 | 46 | 1011.5 |
| 20260902080650 | 88 | 158 | 0.9 | 2.6 | 0.00 | 0.00 | 0.00 | 48 | 1011.5 |
| 20260902080149 | 88 | 180 | 0.0 | 3.5 | 0.00 | 0.00 | 0.00 | 49 | 1011.5 |
| 20260902075651 | 88 | 180 | 0.9 | 3.5 | 0.00 | 0.00 | 0.00 | 49 | 1011.5 |
| 20260902075151 | 88 | 180 | 0.9 | 3.5 | 0.00 | 0.00 | 0.00 | 49 | 1011.5 |
| 20260902074651 | 88 | 180 | 0.9 | 3.5 | 0.00 | 0.00 | 0.00 | 50 | 1011.5 |
| 20260902074155 | 88 | 158 | 0.0 | 2.6 | 0.00 | 0.00 | 0.00 | 50 | 1011.5 |
| 20260902074151 | 88 | 158 | 0.9 | 2.6 | 0.00 | 0.00 | 0.00 | 50 | 1011.1 |
| 20260902073149 | 88 | 135 | 0.0 | 1.7 | 0.00 | 0.00 | 0.00 | 50 | 1011.1 |
| 20260902072649 | 88 | 180 | 0.0 | 0.9 | 0.00 | 0.00 | 0.00 | 50 | 1011.1 |
| 20260902072150 | 88 | 338 | 0.0 | 2.6 | 0.00 | 0.00 | 0.00 | 50 | 1011.1 |
| 20260902071920 | 88 | 180 | 0.9 | 2.6 | 0.00 | 0.00 | 0.00 | 50 | 1011.1 |
| 20260902071150 | 88 | 158 | 0.0 | 1.7 | 0.00 | 0.00 | 0.00 | 50 | 1011.1 |
| 20260902070922 | 88 | 158 | 0.0 | 2.6 | 0.00 | 0.00 | 0.00 | 50 | 1010.8 |
| 20260902070150 | 88 | 135 | 0.0 | 2.6 | 0.00 | 0.00 | 0.00 | 51 | 1010.8 |
| 20260902065651 | 88 | 158 | 0.0 | 0.0 | 0.00 | 0.00 | 0.00 | 51 | 1011.1 |
| 20260902065150 | 89 | 158 | 0.0 | 0.0 | 0.00 | 0.00 | 0.00 | 53 | 1011.1 |
| 20260902064650 | 89 | 135 | 0.0 | 0.0 | 0.00 | 0.00 | 0.00 | 51 | 1011.1 |
| 20260902064149 | 89 | 135 | 0.0 | 0.0 | 0.00 | 0.00 | 0.00 | 51 | 1011.1 |
| 20260902063649 | 89 | 135 | 0.0 | 0.0 | 0.00 | 0.00 | 0.00 | 50 | 1010.8 |
| 20260902063150 | 89 | 135 | 0.0 | 0.0 | 0.00 | 0.00 | 0.00 | 50 | 1010.8 |
| 20260902062650 | 89 | 135 | 0.0 | 0.0 | 0.00 | 0.00 | 0.00 | 49 | 1010.8 |
| 20260902062151 | 89 | 135 | 0.0 | 0.0 | 0.00 | 0.00 | 0.00 | 50 | 1010.8 |
| 20260902061650 | 89 | 135 | 0.0 | 0.0 | 0.00 | 0.00 | 0.00 | 50 | 1011.1 |
| 20260902061422 | 89 | 158 | 0.0 | 0.0 | 0.00 | 0.00 | 0.00 | 49 | 1010.8 |
| 20260902060652 | 89 | 180 | 0.0 | 0.0 | 0.00 | 0.00 | 0.00 | 50 | 1011.1 |
| 20260902060421 | 89 | 203 | 0.0 | 0.0 | 0.00 | 0.00 | 0.00 | 50 | 1011.1 |
| 20260902055650 | 89 | 203 | 0.0 | 0.9 | 0.00 | 0.00 | 0.00 | 50 | 1011.1 |
| 20260902055150 | 89 | 203 | 0.0 | 1.7 | 0.00 | 0.00 | 0.00 | 49 | 1011.1 |
| 20260902054649 | 89 | 180 | 0.0 | 3.5 | 0.00 | 0.00 | 0.00 | 48 | 1011.1 |
| 20260902054150 | 89 | 180 | 0.9 | 3.5 | 0.00 | 0.00 | 0.00 | 46 | 1011.1 |
| 20260902053651 | 89 | 180 | 0.0 | 3.5 | 0.00 | 0.00 | 0.00 | 46 | 1011.1 |
| 20260902053421 | 89 | 113 | 0.9 | 3.5 | 0.00 | 0.00 | 0.00 | 46 | 1011.1 |
| 20260902053407 | 89 | 158 | 0.0 | 2.6 | 0.00 | 0.00 | 0.00 | 46 | 1011.1 |
| 20260902052151 | 89 | 158 | 0.0 | 3.5 | 0.00 | 0.00 | 0.00 | 46 | 1010.8 |
| 20260902051650 | 89 | 158 | 0.9 | 3.5 | 0.00 | 0.00 | 0.00 | 46 | 1011.1 |
| 20260902051149 | 89 | 203 | 0.0 | 2.6 | 0.00 | 0.00 | 0.00 | 48 | 1011.1 |
| 20260902050650 | 89 | 180 | 0.0 | 0.0 | 0.00 | 0.00 | 0.00 | 49 | 1011.1 |
| 20260902050149 | 89 | 180 | 0.0 | 0.0 | 0.00 | 0.00 | 0.00 | 50 | 1010.8 |
| 20260902045653 | 89 | 203 | 0.0 | 0.0 | 0.00 | 0.00 | 0.00 | 50 | 1011.1 |
| 20260902045649 | 89 | 180 | 0.0 | 0.0 | 0.00 | 0.00 | 0.00 | 50 | 1010.8 |
| 20260902044922 | 89 | 180 | 0.0 | 0.0 | 0.00 | 0.00 | 0.00 | 50 | 1010.8 |
| 20260902044151 | 89 | 203 | 0.0 | 0.0 | 0.00 | 0.00 | 0.00 | 49 | 1010.8 |
| 20260902043921 | 89 | 203 | 0.0 | 0.0 | 0.00 | 0.00 | 0.00 | 50 | 1010.8 |
| 20260902043152 | 89 | 203 | 0.0 | 0.0 | 0.00 | 0.00 | 0.00 | 46 | 1010.8 |
| 20260902042649 | 90 | 203 | 0.0 | 0.0 | 0.00 | 0.00 | 0.00 | 50 | 1010.8 |
| 20260902042149 | 90 | 203 | 0.0 | 0.0 | 0.00 | 0.00 | 0.00 | 49 | 1010.8 |
| 20260902041649 | 90 | 203 | 0.0 | 0.0 | 0.00 | 0.00 | 0.00 | 49 | 1010.8 |
| 20260902041149 | 90 | 203 | 0.0 | 0.0 | 0.00 | 0.00 | 0.00 | 49 | 1010.8 |
| 20260902040650 | 90 | 180 | 0.0 | 0.0 | 0.00 | 0.00 | 0.00 | 50 | 1010.8 |
| 20260902040422 | 90 | 45 | 0.0 | 0.0 | 0.00 | 0.00 | 0.00 | 48 | 1010.5 |
| 20260902035651 | 90 | 23 | 0.0 | 0.0 | 0.00 | 0.00 | 0.00 | 50 | 1010.8 |
| 20260902035150 | 90 | 23 | 0.0 | 0.0 | 0.00 | 0.00 | 0.00 | 49 | 1010.5 |
| 20260902034651 | 91 | 45 | 0.0 | 0.0 | 0.00 | 0.00 | 0.00 | 48 | 1010.5 |
| 20260902034149 | 91 | 45 | 0.0 | 0.0 | 0.00 | 0.00 | 0.00 | 46 | 1010.0 |
| 20260902033650 | 91 | 270 | 0.0 | 0.0 | 0.00 | 0.00 | 0.00 | 48 | 1010.0 |
| 20260902033149 | 91 | 270 | 0.0 | 0.0 | 0.00 | 0.00 | 0.00 | 46 | 1009.7 |
| 20260902032649 | 91 | 293 | 0.0 | 0.0 | 0.00 | 0.00 | 0.00 | 46 | 1009.7 |
| 20260902032150 | 91 | 270 | 0.0 | 0.0 | 0.00 | 0.00 | 0.00 | 46 | 1009.7 |
| 20260902031650 | 91 | 270 | 0.0 | 0.0 | 0.00 | 0.00 | 0.00 | 45 | 1009.3 |
| 20260902031150 | 91 | 270 | 0.0 | 0.0 | 0.00 | 0.00 | 0.00 | 45 | 1009.3 |
| 20260902030651 | 92 | 248 | 0.0 | 0.0 | 0.00 | 0.00 | 0.00 | 46 | 1009.3 |
| 20260902030150 | 92 | 203 | 0.0 | 0.0 | 0.00 | 0.00 | 0.00 | 45 | 1009.3 |
| 20260902025649 | 92 | 203 | 0.0 | 0.0 | 0.00 | 0.00 | 0.00 | 45 | 1009.0 |
| 20260902025149 | 92 | 203 | 0.0 | 0.0 | 0.00 | 0.00 | 0.00 | 45 | 1009.0 |
| 20260902024649 | 92 | 203 | 0.0 | 0.0 | 0.00 | 0.00 | 0.00 | 45 | 1009.3 |
| 20260902024149 | 92 | 203 | 0.0 | 0.0 | 0.00 | 0.00 | 0.00 | 44 | 1009.0 |
| 20260902023921 | 93 | 203 | 0.0 | 0.0 | 0.00 | 0.00 | 0.00 | 45 | 1009.3 |
| 20260902023151 | 93 | 180 | 0.0 | 0.0 | 0.00 | 0.00 | 0.00 | 45 | 1009.0 |
| 20260902022650 | 93 | 180 | 0.0 | 0.0 | 0.00 | 0.00 | 0.00 | 44 | 1009.0 |
| 20260902022151 | 93 | 270 | 0.0 | 0.0 | 0.00 | 0.00 | 0.00 | 44 | 1009.0 |
| 20260902021650 | 93 | 158 | 0.0 | 0.0 | 0.00 | 0.00 | 0.00 | 44 | 1009.0 |
| 20260902021149 | 94 | 225 | 0.0 | 0.0 | 0.00 | 0.00 | 0.00 | 43 | 1009.0 |
| 20260902020648 | 94 | 180 | 0.0 | 0.0 | 0.00 | 0.00 | 0.00 | 40 | 1009.0 |
| 20260902020149 | 94 | 248 | 0.0 | 0.0 | 0.00 | 0.00 | 0.00 | 40 | 1009.0 |
| 20260902015653 | 94 | 23 | 0.0 | 0.0 | 0.00 | 0.00 | 0.00 | 39 | 1008.7 |
| 20260902015649 | 94 | 68 | 0.0 | 0.0 | 0.00 | 0.00 | 0.00 | 39 | 1008.7 |
| 20260902014650 | 95 | 158 | 0.0 | 0.0 | 0.00 | 0.00 | 0.00 | 39 | 1008.7 |
| 20260902014150 | 95 | 270 | 0.0 | 0.0 | 0.00 | 0.00 | 0.00 | 40 | 1008.7 |
| 20260902013650 | 95 | 270 | 0.0 | 0.0 | 0.00 | 0.00 | 0.00 | 40 | 1008.7 |
| 20260902013421 | 96 | 270 | 0.0 | 0.0 | 0.00 | 0.00 | 0.00 | 35 | 1008.7 |
| 20260902012654 | 96 | 68 | 0.0 | 0.9 | 0.00 | 0.00 | 0.00 | 35 | 1008.7 |
| 20260902012650 | 96 | 180 | 0.0 | 0.0 | 0.00 | 0.00 | 0.00 | 37 | 1008.7 |
| 20260902011649 | 96 | 23 | 0.0 | 2.6 | 0.00 | 0.00 | 0.00 | 35 | 1008.7 |
| 20260902011149 | 96 | 180 | 0.0 | 2.6 | 0.00 | 0.00 | 0.00 | 35 | 1008.7 |
| 20260902010653 | 97 | 293 | 0.0 | 3.5 | 0.00 | 0.00 | 0.00 | 35 | 1008.7 |
| 20260902010649 | 96 | 248 | 0.0 | 2.6 | 0.00 | 0.00 | 0.00 | 35 | 1009.0 |
| 20260902005650 | 97 | 225 | 0.9 | 3.5 | 0.00 | 0.00 | 0.00 | 34 | 1009.0 |
| 20260902005150 | 97 | 225 | 0.0 | 1.7 | 0.00 | 0.00 | 0.00 | 35 | 1009.0 |
| 20260902004651 | 97 | 270 | 0.0 | 2.6 | 0.00 | 0.00 | 0.00 | 35 | 1009.0 |
| 20260902004150 | 97 | 203 | 0.0 | 2.6 | 0.00 | 0.00 | 0.00 | 34 | 1009.0 |
| 20260902003649 | 97 | 315 | 0.0 | 4.3 | 0.00 | 0.00 | 0.00 | 37 | 1008.7 |
| 20260902003149 | 97 | 158 | 0.9 | 4.3 | 0.00 | 0.00 | 0.00 | 35 | 1009.3 |
| 20260902002920 | 97 | 180 | 0.9 | 4.3 | 0.00 | 0.00 | 0.00 | 35 | 1009.0 |
| 20260902002149 | 97 | 203 | 0.0 | 2.6 | 0.00 | 0.00 | 0.00 | 35 | 1009.3 |
| 20260902001650 | 98 | 180 | 0.0 | 4.3 | 0.00 | 0.00 | 0.00 | 35 | 1009.3 |
| 20260902001150 | 98 | 135 | 0.9 | 4.3 | 0.00 | 0.00 | 0.00 | 35 | 1009.3 |
| 20260902000921 | 98 | 158 | 0.0 | 3.5 | 0.00 | 0.00 | 0.00 | 37 | 1009.3 |
| 20260902000151 | 98 | 248 | 0.9 | 4.3 | 0.00 | 0.00 | 0.00 | 37 | 1009.3 |
| 20260901235650 | 98 | 270 | 0.9 | 4.3 | 0.00 | 0.00 | 0.00 | 35 | 1009.3 |
| 20260901235420 | 99 | 68 | 0.0 | 5.2 | 0.00 | 0.00 | 0.00 | 35 | 1009.3 |
| 20260901235410 | 99 | 158 | 0.9 | 5.2 | 0.00 | 0.00 | 0.00 | 35 | 1009.7 |
| 20260901234149 | 99 | 225 | 0.9 | 7.0 | 0.00 | 0.00 | 0.00 | 35 | 1009.3 |
| 20260901233648 | 99 | 225 | 1.7 | 7.0 | 0.00 | 0.00 | 0.00 | 35 | 1009.3 |
| 20260901233150 | 100 | 315 | 0.9 | 5.2 | 0.00 | 0.00 | 0.00 | 35 | 1009.3 |
| 20260901232631 | 100 | 225 | 1.7 | 5.2 | 0.00 | 0.00 | 0.00 | 35 | 1009.7 |
| 20260901232131 | 100 | 135 | 0.9 | 5.2 | 0.00 | 0.00 | 0.00 | 37 | 1009.3 |
| 20260901231631 | 100 | 180 | 1.7 | 5.2 | 0.00 | 0.00 | 0.00 | 35 | 1009.7 |
| 20260901231131 | 100 | 113 | 0.9 | 4.3 | 0.00 | 0.00 | 0.00 | 37 | 1009.7 |
| 20260901230629 | 100 | 203 | 0.9 | 6.1 | 0.00 | 0.00 | 0.00 | 35 | 1009.3 |
| 20260901230130 | 100 | 270 | 1.7 | 6.1 | 0.00 | 0.00 | 0.00 | 35 | 1010.0 |
| 20260901225629 | 99 | 180 | 0.9 | 5.2 | 0.00 | 0.00 | 0.00 | 35 | 1009.7 |
| 20260901225129 | 99 | 180 | 0.0 | 2.6 | 0.00 | 0.00 | 0.00 | 37 | 1010.0 |
| 20260901224630 | 99 | 203 | 0.0 | 7.8 | 0.00 | 0.00 | 0.00 | 37 | 1010.0 |
| 20260901224402 | 99 | 158 | 1.7 | 7.8 | 0.00 | 0.00 | 0.00 | 37 | 1009.7 |
| 20260901223630 | 99 | 203 | 1.7 | 6.1 | 0.00 | 0.00 | 0.00 | 37 | 1010.0 |